User: anonymous   Login
Location: Earls Croome
(52.0667°N, 2.2000°W)
Time: 13:56:26
(UTC+00:00)
Language:

Cosmos 2298 Rocket - Orbit

View from above orbital plane
View from above orbital plane
View from above satellite
View from above satellite

Ground track
Ground track

The orbit data is extracted from the following two-line orbital elements,

1 23432U 94083B   20021.17536767 -.00000001  00000-0  92043-5 0  9990
2 23432  74.0330   4.3643 0005847 330.4036 111.7639 14.33529839312142
Epoch (UTC): 21 January 2020 04:12:31
Eccentricity: 0.0005847
inclination: 74.0330°
perigee height: 776 km
apogee height: 784 km
right ascension of ascending node: 4.3643°
argument of perigee: 330.4036°
revolutions per day: 14.33529839
mean anomaly at epoch: 111.7639°
orbit number at epoch: 31214

The dashed part of the orbit path shows where the satellite is in the earth's shadow,  

DLR